Location: Karcze
(52.0945°N, 22.4786°E)
Time: 12:19:05
(UTC+00:00)

ATLAS 5 CENTAUR R/B - Pass Details

Date: 14 July 2020
Orbit: 534 x 1124 km, 63.4° (Epoch: 03 August)

Event Time Altitude Azimuth Distance (km) Brightness Sun altitude
Rises 01:35:05 0° 312° (NW) 3,256 5.3 -6.6°
Reaches altitude 10° 01:37:25 10° 306° (NW) 2,412 4.5 -6.3°
Maximum altitude 01:42:48 48° 234° (SW) 1,182 2.6 -5.8°
Drops below altitude 10° 01:49:01 10° 163° (SSE) 2,783 4.6 -5.1°
Sets 01:51:53 0° 158° (SSE) 3,803 5.4 -4.8°
